Regional Weather Roundup
Issued by NWS

Home | Current Version | Previous Version | Text Only | Print | Product List | Glossary On
Versions: 1 2 3 4 5 6 7 8 9 10 11 12 13 14 15 16 17 18 19 20 21 22 23 24 25 26 27 28 29 30 31 32 33 34 35 36 37 38 39 40 41 42 43 44 45 46 47 48 49 50
087
ASUS44 KLIX 190807
RWRLA
LOUISIANA WEATHER ROUNDUP
NATIONAL WEATHER SERVICE NEW ORLEANS LA
300 AM CDT SUN APR 19 2015

NOTE: "FAIR" INDICATES FEW OR NO CLOUDS BELOW 12,000 FEET WITH NO
      SIGNIFICANT WEATHER AND/OR OBSTRUCTIONS TO VISIBILITY.
      SKY/WX - SKY CONDITION AND SIGNIFICANT WEATHER.
      TMP - AIR TEMPERATURE.    DP   - DEWPOINT TEMPERATURE.
      RH  - RELATIVE HUMIDITY.  PRES - PRESSURE.
      HX  - HEAT INDEX.         WCI  - WIND CHILL INDEX.

*  THESE STATIONS ARE NOT NWS OR FAA STATIONS AND ARE NOT UNDER
   NWS QUALITY CONTROL.

LAZ040-048-061>063-065-066-069-190900-
SOUTHEAST LOUISIANA

CITY           SKY/WX    TMP DP  RH WIND       PRES   REMARKS
N.O. AUDUBON   NOT AVBL
N.O. INTL ARPT PTCLDY    71  68  90 S8        29.79S
N.O. LAKEFRONT MOCLDY    74  69  85 S12       29.80S
SLIDELL        CLOUDY    72  70  93 S6        29.79S
BATON ROUGE    MOCLDY    71  69  93 SW12      29.79F
BOOTHVILLE     MOCLDY    73  71  93 S9        29.80R
BELLE CHASSE   PTCLDY    70  68  93 CALM      29.79S
BOGALUSA*        N/A     72  67  86 SW5       29.82R
GALLIANO*      PTSUNNY   70  69  95 CALM      29.79S
NEW ROADS*     PTSUNNY   70  69  97 S8        29.79F
GONZALES*      CLOUDY    72  72 100 SW3       29.79F
HAMMOND*       CLOUDY    72  66  83 SW5       29.81F
HOUMA*         MOCLDY    71  70  96 CALM      29.79F
PORT FOURCHON* NOT AVBL

$$

LAZ041-044-053-054-190900-
SOUTHWEST LOUISIANA

CITY           SKY/WX    TMP DP  RH WIND       PRES   REMARKS
LAKE CHARLES   CLEAR     69  65  86 W7        29.83S
LAFAYETTE      PTCLDY    71  69  93 SW8       29.81S
PATTERSON      MOCLDY    72  68  88 SW12G17   29.81F THUNDER
SALT POINT       N/A     71  70  96 CALM      29.79F
NEW IBERIA     PTCLDY    71  69  93 W6        29.81S
CHENAULT AIRPK PTCLDY    69  66  89 W12G20    29.83F

$$

LAZ027-028-190900-
CENTRAL LOUISIANA

CITY           SKY/WX    TMP DP  RH WIND       PRES   REMARKS
FORT POLK      LGT RAIN  63  59  88 W8        29.81S
ALEXANDRIA INT CLOUDY    69  68  96 S10       29.75F
ALEXANDRIA     CLOUDY    69  68  96 S9        29.75F

$$

LAZ001-002-190900-
NORTHWEST LOUISIANA

CITY           SKY/WX    TMP DP  RH WIND       PRES   REMARKS
SHREVEPORT     RAIN      61  60  97 N8        29.78F FOG
BARKSDALE AFB  LGT RAIN  60  60  99 NW13      29.81R FOG
DTN SHREVEPORT RAIN      60  57  89 W9        29.82S FOG

$$

LAZ014-016-190900-
NORTHEAST LOUISIANA

CITY           SKY/WX    TMP DP  RH WIND       PRES   REMARKS
MONROE         CLOUDY    67  66  97 CALM      29.73F
TALLULAH       LGT RAIN  65  63  93 S7        29.74F

$$




USA.gov is the U.S. government's official web portal to all federal, state and local government web resources and services.